Stations météo

réclame
Mon MeteoGroup
Achnagart, Grande-Bretagne (99191): Température de l'air & dewpoint: 17.01.2019 07:00:00 - 23.01.2019 07:00:00 (GMT)Achnagart, Grande-Bretagne (99191): Quantités de précipitations: 17.01.2019 07:00:00 - 23.01.2019 07:00:00 (GMT)
Date & Time tt [°C] td [°C] rr [mm]
23.01.2019 07:00:00 -3,6 -3,9 0,0
23.01.2019 06:00:00 -3,2 -3,5 0,0
23.01.2019 05:00:00 -2,1 -2,3 0,0
23.01.2019 04:00:00 -1,5 -1,8 0,0
23.01.2019 03:00:00 0,1 0,0 0,0
23.01.2019 02:00:00 0,1 0,0 0,0
23.01.2019 01:00:00 0,3 0,2 0,0
23.01.2019 00:00:00 0,3 0,1 0,0
22.01.2019 23:00:00 0,2 0,0 0,0
22.01.2019 22:00:00 0,1 -0,1 0,0
22.01.2019 21:00:00 0,1 -0,2 0,0
22.01.2019 20:00:00 0,3 0,0 0,0
22.01.2019 19:00:00 0,2 -0,1 0,0
22.01.2019 18:00:00 0,5 0,3 0,0
22.01.2019 17:00:00 0,5 0,2 0,0
22.01.2019 16:00:00 0,7 0,3 0,0
22.01.2019 15:00:00 1,1 0,0 0,0
22.01.2019 14:00:00 2,5 0,9 0,0
22.01.2019 13:00:00 1,7 1,2 0,0
22.01.2019 12:00:00 1,3 1,2 0,2
22.01.2019 11:00:00 0,4 0,3 0,0
22.01.2019 10:00:00 0,1 -0,1 0,0
22.01.2019 09:00:00 -0,1 -0,2 0,0
22.01.2019 08:00:00 -0,5 -0,6 0,0
22.01.2019 07:00:00 -0,5 -0,7 0,0
22.01.2019 06:00:00 -0,9 -1,0 0,0
22.01.2019 05:00:00 -1,4 -1,8 0,0
22.01.2019 04:00:00 -0,5 -1,0 0,0
22.01.2019 03:00:00 0,7 0,1 0,6
22.01.2019 02:00:00 1,8 1,1 0,2
22.01.2019 01:00:00 2,7 1,5 0,6
22.01.2019 00:00:00 1,3 1,1 0,0
21.01.2019 23:00:00 0,9 0,6 0,2
21.01.2019 22:00:00 1,0 0,5 0,0
21.01.2019 21:00:00 1,7 1,1 1,2
21.01.2019 20:00:00 2,0 1,1 1,8
21.01.2019 19:00:00 3,6 1,8 2,6
21.01.2019 18:00:00 4,1 2,2 2,4
21.01.2019 17:00:00 4,2 2,3 2,2
21.01.2019 16:00:00 4,5 2,3 1,0
21.01.2019 15:00:00 4,7 2,2 1,4
21.01.2019 14:00:00 4,5 2,4 0,8
21.01.2019 13:00:00 5,4 2,0 0,0
21.01.2019 12:00:00 6,6 0,7 0,0
21.01.2019 11:00:00 6,6 -0,2 0,0
21.01.2019 10:00:00 5,8 0,9 0,0
21.01.2019 09:00:00 5,7 1,4 0,2
21.01.2019 08:00:00 5,7 1,1 0,0
21.01.2019 07:00:00 4,8 2,3 0,4
21.01.2019 06:00:00 5,5 1,6 0,0
21.01.2019 05:00:00 5,7 1,5 0,0
21.01.2019 04:00:00 3,8 1,9 0,0
21.01.2019 03:00:00 2,9 1,8 0,0
21.01.2019 02:00:00 2,9 2,2 0,6
21.01.2019 01:00:00 2,2 1,3 0,8
21.01.2019 00:00:00 2,7 1,0 0,0
20.01.2019 23:00:00 1,3 0,2 0,0
20.01.2019 22:00:00 2,1 0,5 0,0
20.01.2019 21:00:00 2,1 0,8 0,0
20.01.2019 20:00:00 3,0 0,5 0,0
20.01.2019 19:00:00 4,0 1,1 0,0
20.01.2019 18:00:00 3,3 0,2 0,0
20.01.2019 17:00:00 2,6 0,0 0,0
20.01.2019 16:00:00 4,5 0,3 0,0
20.01.2019 15:00:00 5,2 1,2 0,0
20.01.2019 14:00:00 4,3 1,9 0,0
20.01.2019 13:00:00 5,2 1,9 0,0
20.01.2019 12:00:00 5,0 3,4 0,2
20.01.2019 11:00:00 3,6 2,9 1,8
20.01.2019 10:00:00 4,1 3,4 1,0
20.01.2019 09:00:00 3,0 2,9 1,2
20.01.2019 08:00:00 1,7 1,3 1,0
20.01.2019 07:00:00 1,5 0,9 0,0
20.01.2019 06:00:00 1,3 0,8 0,0
20.01.2019 05:00:00 1,0 0,5 0,0
20.01.2019 04:00:00 0,7 0,4 0,0
20.01.2019 03:00:00 0,3 0,0 0,0
20.01.2019 02:00:00 -0,2 -0,4 0,0
20.01.2019 01:00:00 -0,1 -0,4 0,0
20.01.2019 00:00:00 0,0 -0,2 0,0
19.01.2019 23:00:00 -0,7 -1,0 0,0
19.01.2019 22:00:00 -1,2 -1,5 0,0
19.01.2019 21:00:00 -1,8 -2,3 0,0
19.01.2019 20:00:00 -1,1 -1,5 0,0
19.01.2019 19:00:00 -0,5 -1,0 0,0
19.01.2019 18:00:00 0,2 -0,4 0,0
19.01.2019 17:00:00 0,0 -1,3 0,0
19.01.2019 16:00:00 1,3 -0,1 0,0
19.01.2019 15:00:00 1,4 -0,7 0,0
19.01.2019 14:00:00 1,6 -0,5 0,0
19.01.2019 13:00:00 1,9 -0,8 0,0
19.01.2019 12:00:00 4,5 0,2 0,0
19.01.2019 11:00:00 2,3 -0,5 0,0
19.01.2019 10:00:00 3,0 -0,4 0,0
19.01.2019 09:00:00 3,6 -0,1 0,0
19.01.2019 08:00:00 3,2 -0,3 0,0
19.01.2019 07:00:00 3,2 -0,4 0,0
19.01.2019 06:00:00 2,9 -0,6 0,0
19.01.2019 05:00:00 2,6 -0,6 0,0
19.01.2019 04:00:00 3,1 -0,7 0,0
19.01.2019 03:00:00 3,0 -0,6 0,0
19.01.2019 02:00:00 3,0 -0,6 0,0
19.01.2019 01:00:00 3,2 -0,3 0,0
19.01.2019 00:00:00 2,8 0,0 0,2
18.01.2019 23:00:00 2,5 0,1 0,2
18.01.2019 22:00:00 3,3 -0,9 0,0
18.01.2019 21:00:00 3,2 -0,7 0,0
18.01.2019 20:00:00 3,4 -0,8 0,0
18.01.2019 19:00:00 3,1 -1,2 0,0
18.01.2019 18:00:00 3,6 -2,5 0,0
18.01.2019 17:00:00 3,6 -2,9 0,2
18.01.2019 16:00:00 3,5 -2,5 0,0
18.01.2019 15:00:00 3,3 -2,1 0,2
18.01.2019 14:00:00 3,4 -2,3 0,2
18.01.2019 13:00:00 3,3 -2,0 0,4
18.01.2019 12:00:00 3,4 -2,3 0,4
18.01.2019 11:00:00 2,2 -2,8 0,0
18.01.2019 10:00:00 2,3 -3,1 0,0
18.01.2019 09:00:00 2,1 -3,3 0,0
18.01.2019 08:00:00 2,0 -3,5 0,0
18.01.2019 07:00:00 1,5 -3,6 0,0
18.01.2019 06:00:00 1,1 -3,6 0,0
18.01.2019 05:00:00 1,4 -3,5 0,0
18.01.2019 04:00:00 1,2 -3,1 0,0
18.01.2019 03:00:00 0,9 -2,8 0,2
18.01.2019 02:00:00 0,5 -2,4 0,0
18.01.2019 01:00:00 0,6 -2,1 0,0
18.01.2019 00:00:00 0,5 -2,1 0,0
17.01.2019 23:00:00 0,1 -1,9 0,0
17.01.2019 22:00:00 -0,3 -1,4 0,0
17.01.2019 21:00:00 -2,1 -2,4 0,0
17.01.2019 20:00:00 -1,8 -2,2 0,0
17.01.2019 19:00:00 -1,6 -2,1 0,0
17.01.2019 18:00:00 -1,5 -1,9 0,0
17.01.2019 17:00:00 -1,2 -1,8 0,0
17.01.2019 16:00:00 -0,8 -1,5 0,0
17.01.2019 15:00:00 -0,4 -1,2 0,4
17.01.2019 14:00:00 -0,2 -1,1 0,0
17.01.2019 13:00:00 -0,4 -1,4 0,0
17.01.2019 12:00:00 0,8 -0,6 0,0
17.01.2019 11:00:00 -1,1 -1,6 0,0
17.01.2019 10:00:00 -1,1 -1,7 0,0
17.01.2019 09:00:00 0,0 -0,7 0,0
17.01.2019 08:00:00 0,1 -1,1 0,0
17.01.2019 07:00:00 0,1 -0,4 0,0

tt = Température de l'air
td = dewpoint
rr = Quantités de précipitations

stations d'obs. à proximité